Location: Sternwarte ZA, Rosenfeld-Brittheim
(48.2889°N, 8.6789°E)
Time: 12:14:52
(UTC+01:00)

ISS - Pass Details

Date: 21 January 2021
Orbit: 418 x 419 km, 51.6° (Epoch: 20 January)

Event Time Altitude Azimuth Distance (km) Brightness Sun altitude
Rises 19:27:56 0° 246° (WSW) 2,358 1.3 -23.0°
Reaches altitude 10° 19:30:02 10° 246° (WSW) 1,496 0.0 -23.3°
Enters shadow 19:32:21 41° 245° (WSW) 617 -2.5 -23.7°
